Flag for U.S.A. Weather past 2 weeks in Oklahoma City, Oklahoma, U.S.A.

Now
88 °F

Broken clouds.


Feels Like: 97 °F
Forecast: 75 / 90 °F
Wind: 21 mph from South

Location: Will Rogers World Airport

Current Time: Jul 6, 2015 at 6:18:38 PM

Latest Report: Jul 6, 2015 at 5:52 PM


Visibility: 10 mi

Pressure: 29.77 "Hg

Humidity: 63%

Dew point: 74 °F

Location of Oklahoma CityLocation

Historic Weather in Oklahoma City — Graph

°F

Oklahoma City temperature yesterday

Maximum temperature yesterday: 92 °F (at 2:52 PM)
Minimum temperature yesterday: 72 °F (at 5:52 AM)
Average temperature yesterday: 82 °F

Past Weeks' High & Low Weather Summary

 TemperatureHumidityPressure
High96 °F (Jun 29, 2:52 PM)100% (Jul 2, 9:57 PM)30.11 "Hg (Jul 2, 9:57 PM)
Low63 °F (Jun 28, 6:52 AM)35% (Jun 28, 1:52 PM)29.79 "Hg (Jul 1, 6:52 PM)
Average81 °F68%29.94 "Hg
* Reported Jun 21 4:52 PM — Jul 6 4:52 PM, Oklahoma City, Weather by CustomWeather, © 2015

Note: Actual official high and low records may vary slightly from our data, if they occured in-between our weather recording intervals... More about our weather records

Advertising

Oklahoma City weather history for previous 24 hours

 ConditionsComfort  
Time TempWeatherWind HumidityBarometerVisibility
4:52 PM
Mon, Jul 6
90 °FBroken clouds.18 mph61%29.81 "Hg10 mi
3:52 PM90 °FBroken clouds.16 mph61%29.85 "Hg10 mi
2:52 PM89 °FScattered clouds.17 mph61%29.87 "Hg10 mi
1:52 PM89 °FScattered clouds.18 mph63%29.88 "Hg10 mi
12:52 PM88 °FScattered clouds.17 mph65%29.90 "Hg10 mi
11:52 AM85 °FPartly sunny.16 mph70%29.90 "Hg10 mi
10:52 AM84 °FPartly sunny.21 mph72%29.91 "Hg10 mi
9:52 AM82 °FBroken clouds.22 mph74%29.91 "Hg10 mi
8:52 AM80 °FScattered clouds.17 mph79%29.90 "Hg10 mi
7:52 AM77 °FPartly sunny.15 mph85%29.90 "Hg10 mi
6:52 AM75 °FPartly cloudy.12 mph88%29.89 "Hg10 mi
5:52 AM75 °FPartly cloudy.9 mph88%29.88 "Hg10 mi
4:52 AM75 °FPassing clouds.10 mph88%29.87 "Hg10 mi
3:52 AM75 °FPassing clouds.9 mph88%29.88 "Hg10 mi
2:52 AM76 °FPassing clouds.8 mph85%29.88 "Hg10 mi
1:52 AM77 °FPassing clouds.10 mph79%29.88 "Hg10 mi
12:52 AM78 °FPassing clouds.13 mph76%29.89 "Hg10 mi
11:52 PM
Sun, Jul 5
79 °FPassing clouds.12 mph74%29.90 "Hg10 mi
10:52 PM80 °FPassing clouds.14 mph74%29.90 "Hg10 mi
9:52 PM81 °FPassing clouds.14 mph72%29.88 "Hg10 mi
8:52 PM82 °FPartly sunny.10 mph70%29.87 "Hg10 mi
7:52 PM86 °FPartly sunny.14 mph61%29.85 "Hg10 mi
6:52 PM88 °FPassing clouds.16 mph57%29.85 "Hg10 mi
Weather by CustomWeather, © 2015

See weather overviewHow to use our weather pages